KLM56A EDDL-EHAM

Flight info

Callsign KLM56A
Flight time 0h 33m
Altitude 16000
Route SONEB6Z SONEB P55 RKN
Aircraft A21N/M-SDE2E3FGHIRWXY/LB1

Departure

Time 2026-04-30 13:41
Airport Düsseldorf Airport (EDDL)

Arrival

Time 2026-04-30 14:15
Airport Amsterdam Airport Schiphol (EHAM)
Time Latitude Longitude Altitude Speed Heading
2026-04-30 13:08 51.28109 6.76531 134 ft 0 kts 96°
2026-04-30 13:31 51.28110 6.76525 134 ft 3 kts 96°
2026-04-30 13:32 51.28103 6.76444 133 ft 4 kts 53°
2026-04-30 13:32 51.28084 6.76429 134 ft 0 kts 327°
2026-04-30 13:36 51.28095 6.76417 133 ft 3 kts 327°
2026-04-30 13:36 51.28118 6.76385 133 ft 6 kts 310°
2026-04-30 13:36 51.28195 6.76233 133 ft 12 kts 301°
2026-04-30 13:37 51.28166 6.76098 134 ft 15 kts 231°
2026-04-30 13:37 51.28019 6.75789 135 ft 20 kts 233°
2026-04-30 13:38 51.27955 6.75566 134 ft 7 kts 307°
2026-04-30 13:38 51.27984 6.75532 134 ft 1 kts 332°
2026-04-30 13:39 51.28007 6.75514 133 ft 4 kts 338°
2026-04-30 13:39 51.28096 6.75504 132 ft 9 kts 24°
2026-04-30 13:40 51.28127 6.75547 133 ft 0 kts 51°
2026-04-30 13:40 51.28127 6.75548 133 ft 1 kts 51°
2026-04-30 13:41 51.28266 6.75832 134 ft 68 kts 53°
2026-04-30 13:41 51.28681 6.76710 134 ft 128 kts 53°
2026-04-30 13:41 51.29314 6.77996 299 ft 156 kts 54°
2026-04-30 13:41 51.29979 6.79338 1013 ft 152 kts 58°
2026-04-30 13:42 51.30571 6.80713 1667 ft 152 kts 59°
2026-04-30 13:42 51.31232 6.82150 2168 ft 169 kts 57°
2026-04-30 13:42 51.32798 6.85528 3357 ft 207 kts 58°
2026-04-30 13:43 51.33729 6.87463 3786 ft 237 kts 55°
2026-04-30 13:43 51.34831 6.89574 4422 ft 255 kts 48°
2026-04-30 13:43 51.36399 6.90988 5452 ft 269 kts 21°
2026-04-30 13:43 51.37625 6.91388 6088 ft 273 kts 14°
2026-04-30 13:44 51.40158 6.91967 7319 ft 278 kts 13°
2026-04-30 13:44 51.41439 6.92265 7912 ft 281 kts 13°
2026-04-30 13:44 51.43374 6.92738 8857 ft 284 kts 14°
2026-04-30 13:44 51.46001 6.93408 10191 ft 289 kts 14°
2026-04-30 13:45 51.49469 6.94227 11131 ft 321 kts
2026-04-30 13:45 51.51764 6.93922 11608 ft 343 kts 354°
2026-04-30 13:45 51.54129 6.93235 12409 ft 349 kts 353°
2026-04-30 13:46 51.56544 6.92504 13295 ft 351 kts 353°
2026-04-30 13:46 51.58961 6.91795 14166 ft 355 kts 353°
2026-04-30 13:46 51.61390 6.91100 14914 ft 359 kts 354°
2026-04-30 13:46 51.63858 6.90400 15640 ft 363 kts 354°
2026-04-30 13:47 51.66347 6.89701 16137 ft 367 kts 354°
2026-04-30 13:47 51.68884 6.88984 16341 ft 368 kts 354°
2026-04-30 13:47 51.71339 6.88217 16406 ft 354 kts 351°
2026-04-30 13:47 51.73753 6.87310 16413 ft 353 kts 351°
2026-04-30 13:48 51.76132 6.86401 16406 ft 353 kts 351°
2026-04-30 13:48 51.78506 6.85501 16404 ft 353 kts 351°
2026-04-30 13:48 51.80922 6.84581 16413 ft 353 kts 351°
2026-04-30 13:48 51.83303 6.83676 16412 ft 353 kts 351°
2026-04-30 13:49 51.85691 6.82770 16416 ft 353 kts 351°
2026-04-30 13:49 51.88080 6.81867 16405 ft 355 kts 351°
2026-04-30 13:49 51.90507 6.80943 16404 ft 355 kts 351°
2026-04-30 13:49 51.92892 6.80030 16409 ft 355 kts 351°
2026-04-30 13:50 51.95309 6.79097 16418 ft 356 kts 351°
2026-04-30 13:50 52.00101 6.77264 16399 ft 355 kts 351°
2026-04-30 13:50 52.02543 6.76471 16397 ft 352 kts 359°
2026-04-30 13:51 52.04974 6.76335 16417 ft 350 kts
2026-04-30 13:51 52.07396 6.76345 16416 ft 350 kts
2026-04-30 13:51 52.09846 6.76364 16415 ft 350 kts
2026-04-30 13:51 52.12263 6.76373 16415 ft 350 kts
2026-04-30 13:52 52.14709 6.75842 16396 ft 359 kts 346°
2026-04-30 13:52 52.16920 6.73943 16412 ft 368 kts 325°
2026-04-30 13:52 52.18672 6.70888 16412 ft 371 kts 309°
2026-04-30 13:52 52.20210 6.67451 16418 ft 371 kts 309°
2026-04-30 13:53 52.21713 6.64098 16413 ft 372 kts 309°
2026-04-30 13:53 52.23235 6.60690 16411 ft 371 kts 309°
2026-04-30 13:53 52.24775 6.57290 16400 ft 371 kts 309°
2026-04-30 13:53 52.26306 6.53882 16413 ft 371 kts 309°
2026-04-30 13:54 52.27815 6.50522 16408 ft 371 kts 309°
2026-04-30 13:54 52.29337 6.47112 16401 ft 371 kts 308°
2026-04-30 13:54 52.30863 6.43687 16408 ft 371 kts 308°
2026-04-30 13:54 52.32371 6.40294 16403 ft 372 kts 308°
2026-04-30 13:55 52.33891 6.36849 16410 ft 372 kts 308°
2026-04-30 13:55 52.35415 6.33409 16401 ft 372 kts 308°
2026-04-30 13:55 52.36939 6.29955 16400 ft 372 kts 308°
2026-04-30 13:55 52.38431 6.26550 16400 ft 372 kts 308°
2026-04-30 13:56 52.39949 6.23118 16393 ft 372 kts 308°
2026-04-30 13:56 52.41467 6.19672 16374 ft 367 kts 308°
2026-04-30 13:56 52.42923 6.16295 16095 ft 361 kts 307°
2026-04-30 13:56 52.44373 6.12935 15714 ft 361 kts 308°
2026-04-30 13:57 52.45845 6.09590 15300 ft 362 kts 308°
2026-04-30 13:57 52.47321 6.06273 14879 ft 363 kts 308°
2026-04-30 13:57 52.48701 6.02774 14460 ft 367 kts 297°
2026-04-30 13:57 52.49408 5.98749 14035 ft 369 kts 276°
2026-04-30 13:58 52.49574 5.94551 13602 ft 367 kts 271°
2026-04-30 13:58 52.49809 5.86376 12917 ft 355 kts 272°
2026-04-30 13:58 52.49964 5.82339 12495 ft 351 kts 272°
2026-04-30 13:59 52.50128 5.78360 12070 ft 347 kts 272°
2026-04-30 13:59 52.50230 5.74456 11708 ft 344 kts 264°
2026-04-30 13:59 52.49800 5.70617 11430 ft 340 kts 252°
2026-04-30 13:59 52.49141 5.66888 11184 ft 337 kts 250°
2026-04-30 14:00 52.48476 5.63237 10936 ft 328 kts 250°
2026-04-30 14:00 52.47254 5.56265 10627 ft 317 kts 250°
2026-04-30 14:00 52.46657 5.52783 10503 ft 316 kts 250°
2026-04-30 14:01 52.46064 5.49311 10388 ft 315 kts 250°
2026-04-30 14:01 52.45474 5.45853 10275 ft 313 kts 251°
2026-04-30 14:01 52.44887 5.42418 10148 ft 312 kts 250°
2026-04-30 14:01 52.44312 5.39034 10019 ft 311 kts 251°
2026-04-30 14:02 52.43730 5.35617 9895 ft 310 kts 250°
2026-04-30 14:02 52.43113 5.32264 9756 ft 307 kts 244°
2026-04-30 14:02 52.42218 5.29127 9434 ft 301 kts 238°
2026-04-30 14:02 52.41255 5.26085 9007 ft 300 kts 237°
2026-04-30 14:03 52.40294 5.23094 8625 ft 299 kts 237°
2026-04-30 14:03 52.39308 5.20101 8249 ft 296 kts 234°
2026-04-30 14:03 52.38268 5.17314 7892 ft 293 kts 232°
2026-04-30 14:03 52.37172 5.14455 7541 ft 291 kts 232°
2026-04-30 14:04 52.36099 5.11664 7194 ft 288 kts 232°
2026-04-30 14:04 52.35037 5.08884 6810 ft 287 kts 232°
2026-04-30 14:04 52.33981 5.06112 6433 ft 285 kts 232°
2026-04-30 14:04 52.32950 5.03399 6091 ft 283 kts 232°
2026-04-30 14:05 52.31920 5.00674 5736 ft 281 kts 232°
2026-04-30 14:05 52.30899 4.97958 5385 ft 279 kts 232°
2026-04-30 14:05 52.29889 4.95272 5038 ft 278 kts 232°
2026-04-30 14:05 52.28887 4.92598 4602 ft 273 kts 232°
2026-04-30 14:06 52.27940 4.90025 4382 ft 257 kts 232°
2026-04-30 14:06 52.26227 4.85195 4367 ft 242 kts 232°
2026-04-30 14:07 52.24586 4.80526 3849 ft 237 kts 232°
2026-04-30 14:07 52.23762 4.78187 3464 ft 236 kts 232°
2026-04-30 14:07 52.22919 4.75857 3061 ft 238 kts 233°
2026-04-30 14:08 52.21126 4.71309 2377 ft 241 kts 232°
2026-04-30 14:08 52.20249 4.69131 2054 ft 240 kts 232°
2026-04-30 14:08 52.18415 4.64542 1954 ft 241 kts 232°
2026-04-30 14:09 52.17500 4.62254 1975 ft 239 kts 232°
2026-04-30 14:09 52.16640 4.60014 2026 ft 231 kts 238°
2026-04-30 14:09 52.16723 4.54903 1995 ft 238 kts 300°
2026-04-30 14:10 52.17842 4.53111 1959 ft 220 kts 338°
2026-04-30 14:10 52.19273 4.52836 1957 ft 205 kts 18°
2026-04-30 14:10 52.20557 4.53726 1997 ft 198 kts 36°
2026-04-30 14:10 52.21584 4.55164 2001 ft 187 kts 53°
2026-04-30 14:11 52.22334 4.56739 2031 ft 162 kts 61°
2026-04-30 14:11 52.22927 4.58226 1983 ft 153 kts 62°
2026-04-30 14:11 52.23491 4.59673 1969 ft 153 kts 63°
2026-04-30 14:11 52.24061 4.61148 1835 ft 152 kts 64°
2026-04-30 14:12 52.24625 4.62611 1635 ft 152 kts 64°
2026-04-30 14:12 52.25190 4.64075 1431 ft 151 kts 62°
2026-04-30 14:12 52.25728 4.65469 1233 ft 136 kts 62°
2026-04-30 14:12 52.26046 4.66293 1071 ft 123 kts 63°
2026-04-30 14:13 52.26653 4.67850 814 ft 123 kts 64°
2026-04-30 14:13 52.27107 4.69021 718 ft 122 kts 64°
2026-04-30 14:13 52.27554 4.70229 569 ft 126 kts 64°
2026-04-30 14:13 52.28022 4.71428 370 ft 124 kts 64°
2026-04-30 14:14 52.28475 4.72600 219 ft 123 kts 62°
2026-04-30 14:14 52.28938 4.73788 50 ft 123 kts 63°
2026-04-30 14:14 52.29380 4.74919 6 ft 114 kts 64°
2026-04-30 14:14 52.29702 4.75784 3 ft 62 kts 58°
2026-04-30 14:15 52.29865 4.76210 2 ft 35 kts 57°
2026-04-30 14:15 52.29992 4.76503 3 ft 14 kts 45°
2026-04-30 14:15 52.30081 4.76581 4 ft 16 kts 28°
2026-04-30 14:15 52.30181 4.76670 4 ft 13 kts 28°
2026-04-30 14:16 52.30262 4.76730 4 ft 7 kts 25°
2026-04-30 14:16 52.30304 4.76792 4 ft 9 kts 54°
2026-04-30 14:16 52.30343 4.76894 4 ft 12 kts 62°
2026-04-30 14:16 52.30388 4.77023 4 ft 14 kts 59°
2026-04-30 14:17 52.30443 4.77171 4 ft 16 kts 58°
2026-04-30 14:17 52.30507 4.77339 4 ft 19 kts 57°
2026-04-30 14:17 52.30582 4.77526 4 ft 21 kts 47°
2026-04-30 14:17 52.30706 4.77595 4 ft 13 kts 360°
2026-04-30 14:18 52.30765 4.77597 4 ft 9 kts
2026-04-30 14:18 52.30825 4.77559 4 ft 11 kts 298°
2026-04-30 14:18 52.30844 4.77372 4 ft 3 kts 311°
2026-04-30 14:19 52.30883 4.77365 4 ft 5 kts
2026-04-30 14:19 52.30887 4.77366 4 ft 0 kts
2026-04-30 14:19 52.30888 4.77366 4 ft 0 kts